カタログに戻る

ONEWEB-0264

運用中通信PO
NORAD 48982·PAYLOAD·🇬🇧 United Kingdom

打ち上げ Jul 1, 2021 から Vostochny Cosmodrome

Loading…

次のパス (今後24時間)

TLE

最新Source: CelesTrak SupGP

元期: Sep 14, 2026, 19:10 UTC

1 48982C 21060R   26257.79878887  .00003266  00000+0  85542-2 0  2573
2 48982  87.9147 210.9870 0002256  78.3066 348.4564 13.16591782    19

AllMySatでONEWEB-0264をリアルタイム追跡

Download on the App Store